星链-31797 (STARLINK-31797 )

导读 | 豆包AI

STARLINK-31797是美国太空探索技术公司Starlink卫星互联网项目的组成部分,于2024年5月3日发射入轨,属于该项目低轨卫星星座的组网卫星。它将为全球提供高速宽带互联网服务,尤其覆盖偏远地区,助力全球网络互联互通,进一步完善星链星座的通信覆盖能力,推动低轨卫星互联网部署进程。

基本信息
目录编号:
59634
目录名称:
STARLINK-31797
国际标识:
2024-082D
轨道中心:
EARTH
卫星名称:
星链-31797
卫星全名:
星链-31797 (STARLINK-31797 )
卫星状态:
在轨 (已飞行681 天)
发射日期:
2024-05-03 UTC
国别 :
美国 (US)
星等 :
--
轨道信息
数据来源 国际轨道数据 AOE轨道数据
星历时间 2026-03-15T20:20:18+0800
7小时前
查看轨道信息
2026-03-13T02:00:00+0800
3天前
查看轨道信息
半长轴 6861.183km 6861.163km
偏心率 0.0001257 0.0000094
轨道倾角 43.000° 42.999°
近地点辐角 272.173° 181.886°
升交点赤经 106.836° 122.451°
平近点角 87.898° 79.776°
近地点 482.183km 482.961km
远地点 483.909km 483.091km
周期 94.267分钟 94.266分钟
每日圈数 15.275813 15.275879
详细信息
固有亮度:
5
最大亮度:
1.5
卫星平台:
Starlink v2.0 mini
覆盖范围:
全球
运营商:
太空探索技术公司
运营商所在国:
美国
制造商(研发单位):
太空探索技术公司
制造商所在国:
美国
使用方式:
暂无
卫星简介
星链(Starlink)计划是由太空探索技术公司(SpaceX)提出的一个巨型低轨卫星互联网星座项目,计划在2019年至2024年间在太空搭建由约1.2万颗卫星组成的“星链”网络,其中1584颗将部署在地球上空550千米处的近地轨道,并从2020年开始工作。该卫星仍在工作。
2D轨道图
3D轨道图
轨道高度分析图
轨道倾角分析图
轨道综合分析图
查看轨道综合分析图